Regional Weather Roundup
Issued by NWS

Home | Current Version | Previous Version | Text Only | Print | Product List | Glossary On
Versions: 1 2 3 4 5 6 7 8 9 10 11 12 13 14 15 16 17 18 19 20 21 22 23 24 25 26 27 28 29 30 31 32 33 34 35 36 37 38 39 40 41 42 43 44 45 46 47 48 49 50
000
ASUS42 KFFC 011803
RWRGA
WEATHER ROUNDUP FOR GEORGIA
NATIONAL WEATHER SERVICE PEACHTREE CITY GA
200 PM EDT MON SEP 01 2014

NOTE: "FAIR" INDICATES FEW OR NO CLOUDS BELOW 12,000 FEET WITH NO
SIGNIFICANT WEATHER AND/OR OBSTRUCTIONS TO VISIBILITY.

* = USE WITH CAUTION. THE STATIONS MARKED WITH AN ASTERISK MAY NOT
REPORT WEATHER SUCH AS PRECIPITATION, FOG, OR THUNDER AND ARE NOT
QUALITY CONTROLLED BY NWS.

THE REMARK "TC" DENOTES TEMPERATURE READING IN DEGREES CELSIUS.

GAZ001>058-011900-
NORTH GEORGIA

CITY           SKY/WX    TMP DP  RH WIND       PRES   REMARKS
ATLANTA        PTSUNNY   83  74  74 NW6       30.14S
6HR MIN TEMP:  74; 6HR MAX TEMP:  89; 6HR PCP:  0.11;

ATHENS         PTSUNNY   91  70  49 VRB5      30.13F HX  96
6HR MIN TEMP:  74; 6HR MAX TEMP:  92;

CHAMBLEE       PTSUNNY   89  69  51 VRB6      30.14F HX  93
6HR MIN TEMP:  72; 6HR MAX TEMP:  89;

PEACHTREE CITY MOSUNNY   91  71  51 SE9       30.12F HX  97
6HR MIN TEMP:  72; 6HR MAX TEMP:  91;

ROME           MOSUNNY   92  70  48 S9G17     30.10F HX  97
6HR MIN TEMP:  71; 6HR MAX TEMP:  92;

WEST ATLANTA   PTSUNNY   89  71  55 NE3       30.12F HX  95
6HR MIN TEMP:  71; 6HR MAX TEMP:  89;

GAINESVILLE    PTSUNNY   87  68  52 W9        30.17F HX  90
6HR MIN TEMP:  73; 6HR MAX TEMP:  87;

CARTERSVILLE   MOSUNNY   91  67  44 VRB5      30.12F HX  94
6HR MIN TEMP:  72; 6HR MAX TEMP:  91;



CITY           SKY/WX    TMP DP  RH WIND       PRES   REMARKS
DALTON*        SUNNY     86  70  58 CALM      30.12F HX  90
LAWRENCEVILLE* MOSUNNY   88  68  51 CALM      30.14F HX  91
MARIETTA       PTSUNNY   89  71  55 SW8       30.14F HX  95
KENNESAW*      MOSUNNY   88  70  55 CALM      30.16F HX  92
$$

GAZ059>098-102>109-011900-
CENTRAL GEORGIA

CITY           SKY/WX    TMP DP  RH WIND       PRES   REMARKS
AUGUSTA-BUSH   MOSUNNY   94  71  47 VRB3      30.08F HX 101
6HR MIN TEMP:  73; 6HR MAX TEMP:  95;

AUGUSTA-DANIEL SUNNY     96  67  38 S7        30.10F HX 100
6HR MIN TEMP:  76; 6HR MAX TEMP:  98;

COLUMBUS       MOSUNNY   90  68  48 S3        30.09F HX  94
6HR MIN TEMP:  77; 6HR MAX TEMP:  93;

MACON          MOSUNNY   93  72  50 SE8       30.09F HX 101
6HR MIN TEMP:  71; 6HR MAX TEMP:  94;

ROBINS AFB     SUNNY     93  73  51 E5        30.09F HX 102


CITY           SKY/WX    TMP DP  RH WIND       PRES   REMARKS
LAGRANGE*      MOSUNNY   94  74  51 NW5       30.11F HX 104
SYLVANIA*      MOSUNNY   86  71  59 S5        30.10F HX  91
MILLEDGEVILLE* SUNNY     95  72  46 CALM      30.09F HX 103
$$

GAZ099>101-110>166-011900-
SOUTH GEORGIA

CITY           SKY/WX    TMP DP  RH WIND       PRES   REMARKS
SAVANNAH       PTSUNNY   91  72  53 CALM      30.10F HX  98
6HR MIN TEMP:  76; 6HR MAX TEMP:  93;

VALDOSTA       MOSUNNY   92  71  50 VRB5      30.10F HX  98
6HR MIN TEMP:  74; 6HR MAX TEMP:  93;

ALMA           MOSUNNY   87  74  64 S5        30.10F HX  95
6HR MIN TEMP:  74; 6HR MAX TEMP:  93;

ST SIMONS      SUNNY     89  75  63 SE8       30.11F HX  99
6HR MIN TEMP:  77; 6HR MAX TEMP:  89;

FT STEWART     PTSUNNY   91  73  54 VRB1      30.08F HX  99
ALBANY         SUNNY     92  69  47 CALM      30.10F HX  97
HUNTER AFB     PTSUNNY   88  76  65 SE7       30.08F HX  99
MOODY AFB      SUNNY     92  72  52 NE2       30.11F HX 100
BRUNSWICK      PTSUNNY   95  70  43 S5        30.10F HX 101


CITY           SKY/WX    TMP DP  RH WIND       PRES   REMARKS
BAINBRIDGE*    SUNNY     97  73  46 W3        30.09F HX 107
MOULTRIE*      SUNNY     91  68  46 CALM      30.11F HX  95
VIDALIA*         N/A     93  73  52 CALM      30.10F HX 102
WAYCROSS*      MOSUNNY   95  76  53 CALM      30.09F HX 108
DOUGLAS*       PTSUNNY   95  70  43 W3        30.10F HX 101
$$


USA.gov is the U.S. government's official web portal to all federal, state and local government web resources and services.